{"data":{"norad_id":57752,"intl_designator":"2023-131W","name":"STARLINK-30368","alt_names":[],"object_type":"PAYLOAD","status":"ACTIVE","operator":null,"country":"US","launch_date":"2023-09-01","launch_site_code":"AFETR","launch_vehicle":null,"mission":null,"orbit_class":"UNKNOWN","rcs_meters":null,"size_class":null,"mass_kg":null,"dimensions":null,"purposes":["comms"],"wikipedia_slug":null,"has_3d_model":false,"image_url":null,"decayed_at":null,"tle_current":{"epoch":"2026-05-24T20:46:52.317120Z","epoch_age_seconds":86294,"freshness":"FRESH","line1":"1 57752U 23131W   26144.86588330  .00000531  00000+0  28811-4 0  9996","line2":"2 57752  43.0046 102.4704 0001049 277.7925  82.2807 15.27573247151564","mean_motion":15.27573247,"eccentricity":0.0001049,"inclination_deg":43.0046,"raan_deg":102.4704,"arg_perigee_deg":277.7925,"mean_anomaly_deg":82.2807,"bstar":2.8811e-5,"rev_number":15156,"period_min":94.267165442182,"perigee_km":482.34957648287,"apogee_km":483.78905756818,"semimajor_km":6861.2063170255,"source":"CELESTRAK","updated_at":"2026-05-25T13:38:18.402986Z"}}}